Wind_Speed
60 60 59 59 57 57 57 57 58 58 59 60 61 62 62 61 59 58 58 58 59 60 61 61 61 60 60 60 60 60 60 61 61 61 61 62 62 63 63 64 64 65 65 65 65 64 63 62 62 61 60 59 58 58 57 55 53 51 50 50 51 51 52 51 50 48 44 40 40 41 40 38 35 34 34 33 32 29 27 27 27 26 27 28 28
61 61 61 61 59 59 59 59 59 59 59 60 62 63 64 63 61 59 58 58 59 60 61 62 62 61 61 61 61 62 62 62 62 63 63 63 64 64 64 64 65 65 65 65 64 62 61 60 59 59 58 57 56 55 53 51 49 49 49 50 50 51 50 50 48 45 41 39 40 40 38 35 33 32 32 31 29 27 26 25 26 26 27 28 28
61 62 62 61 61 61 62 62 61 60 60 61 62 63 64 64 62 61 60 60 60 61 62 62 62 61 61 61 61 62 62 63 63 63 64 64 64 64 64 64 64 64 64 63 61 60 58 58 57 57 56 56 54 52 49 47 47 48 49 50 50 50 49 48 46 42 40 40 40 38 35 33 32 31 31 28 26 25 24 24 25 26 27 27 26
62 62 62 63 63 64 65 64 64 63 62 62 62 63 64 64 63 63 62 62 62 62 63 63 63 62 61 61 61 62 63 63 64 64 65 65 64 64 64 64 63 63 61 60 59 57 56 56 55 56 55 54 51 48 46 46 47 48 49 49 49 48 47 46 43 40 40 40 38 35 33 32 31 30 28 25 24 23 23 23 25 26 26 26 25
64 64 64 66 66 67 67 66 66 65 65 64 64 64 64 63 63 63 63 63 63 64 64 64 64 63 62 62 63 64 65 65 65 66 66 65 65 64 64 63 62 60 59 58 57 56 55 55 55 55 53 51 48 45 45 46 47 48 49 49 48 47 45 43 41 39 40 38 35 32 31 31 30 28 24 23 22 22 22 24 25 25 25 25 25
66 67 67 68 68 68 68 68 68 68 68 67 66 66 65 64 64 63 63 64 64 65 65 65 65 65 64 64 65 66 66 66 67 67 67 66 65 65 64 62 60 59 58 57 56 55 55 55 54 52 49 47 45 45 47 47 48 48 48 48 47 45 43 41 39 39 39 35 32 31 31 31 28 24 22 21 21 22 23 24 24 25 25 25 25
69 69 70 70 70 70 71 71 71 71 71 70 69 68 67 67 66 65 65 65 66 66 66 67 67 67 66 66 67 67 67 67 67 67 67 66 65 64 63 61 59 57 57 56 56 55 55 53 51 48 46 44 45 47 48 48 48 47 47 46 44 43 41 39 39 39 36 32 31 30 31 29 25 22 21 21 21 22 23 24 24 24 24 25 25
71 71 71 72 72 72 73 74 74 74 73 73 72 71 70 70 69 69 69 68 68 68 68 68 68 68 68 68 68 68 68 67 67 67 66 66 65 64 62 60 58 57 56 56 55 54 52 49 46 44 43 44 46 48 48 48 47 47 46 44 42 40 39 39 38 37 33 31 30 30 29 27 24 22 21 21 22 23 23 24 24 24 24 25 25
73 73 73 73 73 73 73 74 75 75 75 74 74 73 73 72 72 72 71 71 70 70 69 68 68 68 68 68 68 68 68 67 66 66 66 65 65 63 62 60 58 57 56 55 54 51 48 44 42 42 43 46 48 49 48 48 47 46 44 41 39 38 38 39 37 34 31 30 30 29 28 25 23 22 21 22 23 23 24 24 24 25 26 26 25
73 73 73 73 73 73 74 74 75 75 75 75 75 75 75 74 74 73 73 72 72 71 70 69 68 68 68 68 68 67 67 66 66 65 65 65 64 63 61 60 59 57 55 53 50 47 43 41 40 43 46 49 50 49 48 47 46 44 41 38 36 37 38 37 34 31 30 30 29 28 26 25 23 22 21 23 24 25 25 25 25 26 27 27 26
72 72 73 74 74 75 75 75 75 75 75 75 75 75 75 75 75 74 74 73 72 71 70 69 69 68 68 67 67 66 66 65 65 65 64 64 63 63 61 61 59 56 52 50 47 43 40 40 43 46 49 51 50 49 47 46 44 42 38 35 35 37 36 34 31 29 29 29 28 26 25 24 22 22 22 24 25 26 26 26 27 28 29 29 27
73 73 74 74 75 76 76 76 76 75 75 75 75 75 75 75 74 74 74 73 72 71 70 69 68 67 66 66 65 65 65 64 64 64 64 63 63 63 62 61 58 53 51 49 45 41 40 43 47 50 51 52 50 48 46 44 42 38 35 34 35 36 34 31 29 28 29 28 27 26 25 23 22 22 23 24 25 26 27 28 28 29 30 30 29
72 73 73 74 75 76 76 76 76 75 75 74 74 74 74 73 73 73 73 72 71 70 69 68 67 66 65 65 65 64 64 64 63 63 63 63 63 63 62 60 55 53 52 49 44 41 44 49 52 52 52 52 49 46 44 42 39 35 33 34 35 34 31 29 28 27 28 27 27 26 25 23 23 23 24 25 26 27 29 29 29 30 31 31 30
72 73 73 74 75 75 75 75 75 74 73 72 72 72 72 72 72 71 71 70 69 68 67 66 65 64 64 64 64 63 63 63 63 64 64 64 64 62 60 58 54 53 52 47 43 45 51 54 53 52 51 49 46 44 42 39 36 34 33 34 34 31 28 27 26 26 26 26 26 26 25 24 23 24 25 26 27 28 30 30 30 31 32 31 32
72 73 73 74 74 74 74 73 73 72 70 70 70 70 70 70 69 69 69 68 67 66 65 64 64 64 63 63 63 63 63 63 64 65 65 64 65 62 59 57 55 52 49 46 46 50 54 54 52 50 48 46 44 42 39 36 34 34 35 35 32 28 26 26 26 25 25 25 26 25 25 25 24 24 26 27 28 30 30 31 32 32 32 32 33
72 72 73 73 73 72 72 71 70 69 69 69 69 69 69 69 68 68 68 67 66 66 65 64 64 63 63 63 63 63 64 64 64 66 66 64 63 61 57 55 53 49 46 46 50 54 54 51 49 47 45 43 42 40 36 34 33 35 35 32 28 26 25 25 25 26 25 25 26 26 26 25 25 25 26 28 29 31 31 32 32 32 33 34 34
73 73 73 73 72 71 70 70 69 69 69 69 69 69 69 69 68 68 68 67 67 66 66 65 64 64 64 64 64 64 65 65 65 65 65 62 58 56 53 51 48 47 48 51 53 53 51 48 46 44 42 41 39 36 34 33 34 35 33 28 25 24 23 24 25 26 25 25 26 28 27 26 25 26 27 29 30 31 32 33 33 33 34 36 34
73 73 73 73 71 70 70 69 69 69 69 69 69 69 69 69 69 69 69 68 68 67 66 66 65 65 65 64 64 65 65 65 65 62 59 55 51 50 48 46 46 49 51 52 52 50 47 45 43 41 40 39 37 34 32 33 35 33 29 25 23 22 23 25 26 27 27 26 26 27 28 27 27 27 28 30 31 32 33 33 33 34 35 37 33
71 72 71 71 69 68 68 68 68 68 69 69 69 70 70 70 70 70 70 70 69 68 68 67 66 65 65 64 64 65 64 62 58 54 50 46 44 45 45 46 48 51 51 50 48 46 44 42 41 40 39 38 35 33 33 34 34 29 25 23 22 23 25 26 28 28 28 27 26 26 27 28 28 28 30 31 33 34 34 34 34 34 36 36 32
66 66 66 66 65 65 65 65 66 66 67 67 68 68 69 69 70 70 70 70 69 68 67 67 66 66 65 64 63 61 57 52 47 45 41 38 39 42 44 47 49 50 49 47 45 43 42 40 39 39 38 36 35 34 33 33 30 25 23 23 24 25 27 28 29 29 28 28 27 26 26 27 28 29 31 33 34 34 34 34 35 35 37 35 29
63 62 62 61 60 61 61 61 62 62 63 64 64 64 65 65 65 65 65 65 66 65 65 64 63 62 61 59 55 51 48 42 39 36 33 33 38 42 45 47 48 47 46 44 43 42 40 38 38 38 36 35 35 34 33 30 26 23 23 24 25 26 28 29 29 28 27 26 26 25 25 26 28 31 33 35 36 36 35 35 36 37 37 33 28
63 62 61 59 59 57 58 59 59 58 59 60 59 58 58 58 58 59 59 60 61 61 60 59 57 55 52 49 45 43 40 34 31 30 32 38 42 44 46 47 46 45 44 43 42 40 38 38 37 36 35 34 33 31 29 26 23 23 24 25 26 27 28 28 27 26 25 25 25 25 26 28 30 32 35 37 38 38 37 36 37 38 36 31 27
64 62 60 59 56 55 56 56 56 57 57 56 55 55 54 55 56 57 56 56 55 54 53 51 49 47 45 42 40 38 33 26 27 31 38 44 44 44 44 44 44 44 43 41 40 39 39 37 36 35 33 31 30 29 26 23 22 23 24 25 26 27 26 25 24 25 25 24 25 27 28 30 32 34 37 38 38 38 38 37 38 37 34 29 28
64 62 59 56 52 52 53 52 53 54 51 48 47 48 50 52 53 52 51 50 49 47 46 44 42 41 39 37 33 29 23 23 27 36 43 44 44 43 42 42 43 43 41 39 39 39 38 36 35 33 30 28 28 27 24 23 24 24 23 24 25 26 25 23 24 26 26 26 27 28 30 32 34 36 37 37 37 37 37 38 37 35 31 29 28
64 60 56 51 47 47 46 44 44 41 34 31 36 41 42 43 44 44 45 44 43 41 39 39 38 35 33 29 24 20 19 24 32 40 42 42 42 40 40 42 42 40 39 40 40 38 36 36 33 30 27 26 26 25 24 24 24 23 23 23 24 25 24 24 26 29 29 29 29 29 30 32 32 32 33 34 35 36 37 36 35 32 29 28 28
62 58 53 45 40 38 33 31 32 28 21 18 26 37 37 36 38 39 38 37 37 36 36 36 34 30 27 22 19 19 23 28 33 37 37 36 36 37 40 41 39 38 40 40 38 36 36 34 30 27 26 25 24 24 23 24 22 21 23 24 24 24 24 27 29 31 31 30 29 28 27 27 27 28 30 32 34 35 35 34 33 30 28 28 26
60 56 53 44 37 35 28 29 32 31 28 25 24 28 33 35 35 33 30 31 33 32 32 31 28 25 21 17 17 20 25 30 32 34 34 33 35 39 42 40 39 39 39 39 38 37 36 32 28 26 25 23 23 22 22 22 21 21 23 24 24 22 23 28 28 28 30 28 26 25 23 23 25 28 30 32 32 32 31 30 27 25 24 24 22
59 55 53 47 42 41 37 34 35 34 36 36 28 23 30 35 33 30 25 26 27 27 28 25 23 21 16 13 17 22 26 32 37 36 32 32 38 42 43 41 41 40 39 39 39 38 37 33 29 26 23 22 22 22 22 23 22 23 24 23 21 19 22 25 22 24 27 25 24 23 23 25 27 29 28 29 28 27 25 23 21 18 19 18 17
58 55 53 49 45 46 43 36 35 32 28 28 25 21 25 31 31 27 25 25 24 24 23 21 19 19 16 15 21 25 30 36 37 33 33 37 43 44 42 41 40 39 39 40 41 39 37 33 29 26 24 23 23 23 23 23 23 24 23 21 19 19 21 19 16 23 26 24 23 23 24 26 27 27 26 26 25 23 20 17 15 14 14 14 14
57 54 53 50 45 46 42 31 27 26 23 21 21 19 18 23 28 27 27 26 22 20 17 16 18 18 17 19 24 27 31 34 30 28 36 43 44 43 41 40 39 39 40 41 41 39 36 32 28 26 25 25 24 23 23 23 23 22 20 18 17 17 17 14 13 24 27 23 23 24 24 25 24 24 24 24 22 19 16 13 12 12 12 12 12
56 53 51 50 47 47 46 37 28 26 27 24 21 22 19 21 27 26 26 23 18 15 12 13 16 17 18 20 24 26 27 29 26 31 41 44 43 42 41 40 41 41 41 41 40 38 35 31 29 27 26 26 24 23 23 22 20 19 16 14 15 15 12 9 12 23 27 23 23 22 21 20 19 20 22 22 20 18 15 12 10 10 12 12 11
52 50 48 48 48 48 48 46 40 34 29 24 24 26 23 25 28 26 23 19 15 13 12 14 17 20 21 23 24 24 23 23 29 39 44 43 41 40 40 40 41 41 41 41 39 37 34 32 31 29 27 25 24 23 22 20 17 15 14 11 12 11 8 9 16 23 25 24 22 18 16 16 17 18 19 18 19 18 15 11 10 11 12 12 11
48 47 46 45 45 46 46 45 43 41 33 24 25 26 25 27 28 27 21 16 15 15 17 19 18 22 24 25 25 23 24 27 35 43 43 41 41 40 40 40 40 41 40 40 38 36 33 32 30 29 26 24 24 23 21 18 14 13 12 10 9 8 8 14 20 21 22 23 21 18 16 16 17 16 14 15 18 18 16 12 11 13 13 13 11
44 45 45 42 41 42 44 42 41 43 38 26 24 25 23 25 25 24 19 14 17 20 22 20 19 24 28 29 26 25 29 34 38 41 41 41 41 40 40 40 39 39 38 38 36 34 32 30 29 27 25 24 23 21 19 16 14 13 12 10 8 9 12 17 20 19 21 21 20 19 17 16 16 15 13 14 16 17 17 14 12 13 14 14 13
40 39 37 35 34 36 40 42 40 44 45 31 24 25 22 22 23 22 19 16 19 21 20 20 22 27 31 32 30 29 31 35 37 39 40 41 41 41 40 39 38 37 36 36 34 33 31 29 28 26 24 23 21 20 18 16 15 13 12 10 8 11 15 17 18 18 19 19 18 18 17 16 14 15 15 13 13 15 16 15 13 12 13 15 15
36 32 31 30 29 31 36 42 40 42 47 38 29 27 22 23 25 23 21 19 18 18 19 21 23 27 31 34 32 29 31 34 38 40 40 41 42 40 38 37 37 36 35 35 33 32 30 28 26 24 22 21 21 19 18 16 16 14 12 10 9 13 16 16 16 17 18 18 17 17 17 16 14 15 15 14 14 15 15 16 15 13 13 15 15
33 31 31 30 29 31 35 39 38 38 44 43 37 34 27 24 26 25 24 21 18 17 19 21 23 25 28 31 29 28 32 36 40 42 42 41 40 38 36 36 36 35 35 33 32 30 28 26 24 22 21 21 21 20 18 17 17 15 13 10 10 15 16 14 15 17 18 17 15 15 15 16 15 15 17 17 17 15 15 16 16 15 16 17 17
35 36 34 32 32 33 34 36 36 36 40 42 41 39 34 27 23 25 25 22 19 16 19 21 24 26 25 27 29 32 37 40 41 42 43 41 38 33 30 33 36 34 33 31 29 27 25 24 22 21 21 21 21 20 18 18 18 16 13 9 11 16 17 15 16 17 17 16 14 14 16 17 18 19 20 20 19 16 16 16 17 18 18 18 18
37 40 40 38 38 36 34 32 32 36 38 41 43 41 37 30 23 25 26 24 22 19 18 21 25 27 24 24 30 35 40 43 43 42 44 42 35 29 28 32 35 33 31 29 26 25 24 22 21 20 20 20 20 19 19 19 18 16 12 9 12 16 17 15 15 15 13 14 14 14 15 17 19 20 19 19 19 18 17 16 18 19 18 19 19
38 43 45 45 44 42 40 34 31 35 39 42 43 38 35 32 27 28 29 27 28 25 21 23 27 26 22 26 34 39 44 47 45 43 45 41 35 33 32 33 33 32 30 27 24 24 23 22 21 20 20 19 19 19 19 19 18 15 12 11 15 18 18 16 15 13 11 12 14 13 13 16 18 19 20 21 19 17 16 16 17 18 19 19 19
39 44 48 49 48 47 46 41 36 36 39 41 39 35 33 32 33 37 37 36 36 32 26 26 27 24 25 33 41 45 48 48 44 43 43 40 37 34 31 32 33 31 28 25 24 24 23 22 21 20 19 19 19 19 19 19 17 14 12 14 17 18 18 16 14 12 12 13 14 14 14 15 18 20 22 23 19 17 18 18 19 20 21 20 19
39 44 48 49 51 50 48 46 43 41 41 40 38 37 35 34 38 43 42 40 41 35 30 28 25 27 35 43 46 47 47 46 42 40 40 39 37 33 32 33 32 29 27 25 24 24 23 22 21 20 19 19 19 19 19 18 16 14 13 16 18 19 18 17 14 12 13 13 14 14 14 16 19 20 20 20 18 19 21 20 19 20 22 22 20
39 43 46 48 50 51 50 49 46 43 39 39 40 39 35 34 39 43 42 43 43 37 33 31 29 32 39 44 44 44 43 41 38 37 38 37 36 35 35 34 31 29 27 25 24 24 23 22 21 20 19 19 20 19 19 18 17 15 15 18 21 22 22 21 18 16 15 13 14 15 15 16 19 19 20 21 21 22 24 24 23 23 25 26 25
39 43 46 47 47 48 49 48 45 41 36 36 39 38 34 35 40 45 48 47 43 37 35 34 33 35 37 39 40 41 40 38 36 37 39 37 36 36 35 33 32 29 27 26 25 24 23 22 21 19 19 20 20 20 20 19 18 17 17 19 22 23 23 24 22 20 18 15 15 17 17 17 19 21 23 25 26 28 29 31 31 31 31 31 31
40 43 44 44 44 44 45 44 43 40 37 37 41 41 37 38 42 47 49 47 42 38 35 36 37 35 36 39 40 41 39 37 38 40 39 38 37 36 35 33 31 29 28 26 25 25 24 22 20 18 19 21 20 20 20 20 19 18 18 20 20 22 24 24 22 21 21 19 18 18 19 21 22 24 26 26 28 29 31 32 33 34 34 34 34
39 40 40 38 39 39 38 38 39 41 40 41 44 45 42 42 44 46 48 46 41 38 36 38 39 38 38 40 42 43 42 41 43 43 42 40 37 35 35 33 31 29 27 26 25 25 24 23 21 19 20 22 21 21 21 21 20 20 21 21 20 22 25 24 22 22 23 23 21 20 21 22 23 25 27 27 28 29 30 32 33 35 36 37 37
36 33 32 30 30 31 32 35 38 41 41 42 44 43 43 47 49 50 51 48 43 40 39 40 42 41 41 42 44 45 45 45 46 46 43 40 36 35 34 33 31 28 26 25 25 25 24 23 21 20 21 22 22 21 22 22 22 21 22 23 23 25 26 25 23 23 24 23 23 23 24 25 26 27 29 30 31 32 33 33 34 35 37 37 37
31 26 24 23 24 27 34 39 41 40 40 42 43 44 47 49 51 51 49 45 43 41 40 41 43 44 45 44 45 46 47 47 47 45 41 37 35 34 33 32 30 27 25 25 24 24 23 23 21 21 22 23 22 21 22 22 23 22 22 24 25 27 29 28 26 26 27 27 27 26 27 28 30 31 31 32 33 34 35 36 36 37 37 37 37
23 20 20 23 25 29 36 42 42 41 41 42 43 49 51 48 48 50 44 40 42 42 41 41 43 44 44 44 44 46 46 45 43 39 36 34 33 32 32 31 29 27 26 24 24 24 24 23 22 22 22 23 22 21 22 22 23 23 22 23 24 26 28 30 30 31 31 31 30 29 30 31 33 34 34 33 33 34 35 36 37 37 37 37 37
18 20 25 33 35 33 34 38 40 41 43 44 47 51 49 44 45 46 41 39 41 43 42 41 42 43 43 43 44 44 42 40 37 35 34 33 32 32 32 31 30 29 27 26 26 25 26 25 24 22 23 23 22 21 22 22 23 24 22 21 22 24 26 28 30 31 31 31 30 30 32 34 36 37 36 34 33 34 35 36 36 37 37 37 37
27 34 39 43 41 35 37 45 47 46 45 45 48 48 43 40 42 42 40 39 39 41 41 40 41 41 42 43 43 42 40 38 37 35 34 33 33 33 32 31 30 30 29 28 28 27 27 26 24 23 23 22 22 21 21 22 23 23 22 22 22 22 24 25 27 29 31 32 32 31 33 34 36 37 37 37 36 35 34 36 36 37 37 38 38
Wind_Direction
261 262 264 265 267 269 272 274 277 278 279 278 278 278 278 278 278 278 279 280 281 281 282 283 283 284 285 287 288 289 290 291 292 293 294 295 295 296 297 297 298 299 300 300 300 301 301 301 301 302 302 303 304 305 305 306 307 308 309 309 309 308 307 306 305 305 304 303 303 303 301 299 296 293 290 289 287 282 277 275 276 278 282 288 293
260 261 263 264 266 269 272 275 277 278 279 279 278 277 277 278 278 279 280 280 281 282 282 283 283 283 285 286 288 289 289 290 292 293 294 295 295 296 297 298 299 300 300 300 300 301 301 302 302 303 303 304 305 306 306 307 308 309 310 309 309 308 307 306 305 304 303 303 303 302 300 297 293 290 289 287 283 278 276 277 279 282 286 291 295
260 261 262 264 267 270 272 274 276 278 279 279 279 278 277 277 278 279 280 281 282 282 283 283 284 284 285 287 288 290 290 291 292 294 295 296 296 297 298 299 300 300 300 300 300 301 302 303 303 304 304 305 305 306 306 307 309 310 310 310 308 307 306 305 304 303 303 304 303 301 298 294 290 288 287 284 279 277 277 278 282 286 290 293 295
259 260 262 264 267 270 272 274 276 277 278 278 279 278 278 277 278 279 280 282 282 283 283 284 285 286 286 287 289 291 292 292 292 295 297 297 297 298 299 300 301 301 300 300 301 302 303 304 304 304 304 305 305 305 306 308 310 311 311 309 308 306 305 303 303 302 303 304 302 299 295 291 288 287 284 280 277 278 279 282 286 290 293 294 296
259 260 261 264 266 269 271 274 276 278 278 278 279 278 278 278 278 279 280 282 283 284 284 285 286 287 288 288 289 291 292 292 293 295 298 298 299 300 300 301 301 301 300 301 301 302 303 304 304 304 304 304 304 306 308 310 311 312 311 309 307 305 303 302 301 302 304 302 300 296 292 289 287 285 280 276 277 279 282 286 290 292 294 295 298
261 261 262 264 266 267 270 272 275 277 278 278 279 279 279 278 278 279 282 283 284 285 286 287 287 288 288 289 290 291 292 293 294 296 298 299 300 300 301 301 301 300 301 301 302 303 304 304 304 304 304 303 304 307 309 311 312 312 310 308 306 304 302 301 302 303 303 300 297 293 290 288 285 281 275 275 278 281 284 288 292 294 294 296 298
263 264 265 265 266 267 269 271 273 275 277 278 279 280 280 279 279 281 283 284 285 286 287 287 288 288 289 290 291 292 293 294 295 296 298 299 300 300 300 300 300 301 301 302 303 303 304 304 304 304 303 304 306 309 311 311 312 311 309 307 305 302 300 300 302 303 301 297 293 290 288 285 280 274 272 275 279 283 286 290 295 296 296 297 299
264 266 266 267 268 268 269 270 272 274 276 277 279 280 281 281 281 281 283 284 286 286 287 287 288 289 289 291 292 293 294 295 296 297 298 299 300 300 300 300 300 302 303 304 304 304 303 303 303 303 304 306 308 310 311 311 311 310 308 306 304 301 300 302 303 301 298 294 291 288 285 280 274 270 270 274 278 282 287 292 298 300 299 300 301
265 266 267 268 269 269 270 271 271 273 274 276 278 280 282 282 282 282 283 284 286 287 287 288 289 289 290 291 293 294 295 296 297 298 298 299 299 299 299 300 301 303 304 305 304 303 303 303 302 303 305 308 310 311 311 310 309 308 307 305 302 299 301 302 301 299 295 292 289 286 282 275 270 267 269 273 277 281 286 293 299 302 302 302 302
265 266 267 268 269 270 271 271 272 273 274 276 278 280 281 282 282 283 284 285 286 287 287 288 289 290 291 292 293 295 295 296 297 298 298 299 299 299 300 301 302 304 305 305 303 302 302 301 301 304 307 310 311 311 310 309 308 307 306 303 300 300 302 301 298 295 292 291 288 283 278 273 268 266 269 272 276 281 286 292 298 303 303 302 302
266 267 268 269 270 271 271 272 273 274 275 277 278 280 281 282 282 283 284 285 286 287 287 288 289 290 291 292 294 295 296 296 297 298 298 298 299 300 301 302 303 304 305 304 302 301 300 300 302 305 308 310 311 310 308 307 306 305 304 301 299 301 302 298 294 292 291 290 285 279 275 272 268 268 271 274 278 282 287 291 297 301 302 302 301
267 268 269 270 270 271 272 273 274 275 276 277 279 280 281 282 282 283 284 285 286 287 287 288 290 291 292 293 294 295 296 296 297 298 298 299 299 301 302 303 304 304 304 304 301 298 299 301 304 307 308 309 309 308 307 306 304 303 301 299 300 302 299 295 291 290 291 288 280 275 274 271 271 272 275 278 282 287 290 292 296 299 301 301 300
268 268 269 270 271 271 272 273 274 275 277 278 279 280 281 282 283 284 285 286 286 287 288 289 290 291 292 293 294 295 296 297 297 298 299 299 300 302 302 303 303 302 304 302 297 297 300 304 306 307 307 308 307 306 305 304 303 301 299 299 302 301 296 291 290 291 291 285 277 275 274 272 274 277 280 283 286 290 292 294 296 298 300 301 301
268 268 269 270 270 271 272 273 275 276 277 279 280 281 282 283 284 285 285 286 287 288 289 290 291 292 293 294 295 296 297 297 298 299 299 300 301 302 302 302 301 301 302 298 295 298 302 304 305 306 306 306 305 304 304 302 301 299 299 301 302 298 291 288 289 293 292 283 278 277 276 274 276 280 285 287 289 291 292 294 296 298 300 302 304
268 268 269 270 270 272 273 274 275 277 278 279 281 282 283 283 284 285 286 286 287 288 289 290 291 292 293 295 296 296 297 298 299 299 300 301 301 301 300 299 300 300 299 295 295 299 302 303 304 305 305 303 303 303 302 301 300 299 301 302 300 293 288 286 288 293 292 284 278 278 277 276 278 283 288 290 291 292 292 294 296 299 302 305 307
268 268 269 269 270 272 273 274 276 277 279 280 281 282 283 283 284 285 286 287 287 288 290 291 292 293 294 295 296 297 298 298 299 299 300 301 300 299 298 297 298 297 295 294 297 300 302 303 304 304 303 302 302 301 301 300 300 301 303 302 296 290 286 285 288 293 293 286 278 277 278 277 279 284 288 290 291 292 292 294 296 300 304 307 308
267 268 269 269 270 272 273 274 276 277 279 280 281 281 282 283 284 285 286 287 287 289 290 291 292 293 294 295 296 297 297 298 299 299 300 300 298 296 296 295 295 294 293 296 299 302 303 303 303 303 301 301 301 300 300 300 301 303 303 299 292 287 286 287 290 293 293 290 282 277 278 281 283 285 288 289 290 291 293 295 296 300 304 307 307
267 267 268 270 271 273 274 276 277 278 279 280 281 281 282 283 283 284 285 286 287 288 289 290 292 293 293 294 296 296 297 298 299 299 298 297 296 295 294 294 293 294 296 299 301 302 303 303 303 302 301 301 301 300 300 301 302 303 301 294 289 286 287 290 292 293 293 292 287 281 279 283 285 286 287 288 290 292 295 295 296 300 303 307 304
267 268 269 271 273 275 277 278 279 280 281 281 282 282 282 283 283 284 285 286 287 287 289 290 291 292 293 294 295 296 297 298 298 297 294 294 295 295 294 294 295 297 299 301 302 303 303 303 303 301 300 301 301 301 301 302 302 301 296 290 286 286 289 292 294 294 293 292 289 284 281 283 285 286 286 288 291 293 295 295 296 299 303 305 301
268 270 271 274 276 278 280 281 282 283 283 284 284 284 284 284 284 285 285 286 286 287 288 289 290 291 293 294 296 297 297 298 297 293 291 293 296 296 295 297 299 299 301 301 302 302 303 303 302 301 301 302 302 302 302 302 300 296 291 286 285 288 292 295 294 293 293 292 291 288 284 284 286 286 288 289 292 294 294 294 296 299 302 303 297
270 272 275 278 280 282 283 284 285 285 286 285 285 286 286 286 286 286 287 287 287 287 288 289 290 292 294 296 296 297 297 297 294 289 290 295 298 299 298 300 301 301 302 302 302 302 303 302 301 302 302 302 303 302 302 300 296 292 289 287 288 292 296 297 295 293 293 292 291 289 287 287 288 288 289 290 292 294 293 294 297 299 301 300 293
272 275 277 279 282 284 286 287 288 289 288 288 289 289 289 289 289 288 288 288 288 288 289 290 292 294 296 296 297 297 294 292 286 284 294 300 300 300 300 301 302 302 302 302 302 303 302 301 301 302 303 303 303 302 301 297 294 293 292 291 292 296 299 298 296 295 295 294 293 293 292 291 290 288 286 288 291 292 292 294 296 298 299 296 289
274 276 278 281 285 287 289 291 292 291 291 293 293 292 292 292 291 290 289 289 289 290 291 292 294 295 295 295 295 291 287 280 274 284 299 302 301 301 300 300 301 302 302 302 303 303 302 302 302 303 303 303 302 301 299 295 295 297 296 296 297 300 300 298 299 299 298 294 291 291 290 288 285 284 285 287 289 289 290 292 294 295 294 291 287
274 276 280 283 286 289 290 291 292 292 295 297 295 294 294 293 292 291 290 289 290 290 291 292 292 292 292 294 291 285 280 268 272 291 301 300 298 298 299 300 300 301 302 302 302 302 301 302 303 302 303 302 301 300 298 296 297 300 299 299 302 303 300 301 303 303 300 294 287 283 282 281 281 283 285 287 287 288 290 291 291 291 289 287 287
274 276 279 282 287 289 288 287 286 289 295 294 292 296 298 300 300 296 293 290 290 290 289 289 288 288 289 289 281 274 269 266 282 298 299 294 293 296 299 300 301 301 301 301 302 301 300 301 301 301 302 302 299 298 299 301 303 304 304 304 306 304 301 304 306 304 301 298 292 287 284 283 284 286 286 287 289 291 292 292 290 287 284 284 287
273 273 273 275 279 279 277 273 268 270 273 266 280 295 300 306 309 304 298 291 287 286 286 286 286 286 284 278 272 271 272 276 292 301 297 292 294 298 302 302 302 301 300 300 299 298 299 300 298 299 301 301 299 299 301 303 305 305 305 307 306 303 304 308 309 306 302 299 296 292 290 290 290 291 292 293 294 294 293 292 290 285 279 281 284
271 270 269 266 263 261 255 251 253 261 266 257 266 284 291 301 307 304 299 290 286 286 285 286 286 284 278 271 270 271 274 282 295 299 292 290 296 301 303 302 301 299 298 297 297 296 298 297 295 298 300 299 300 301 301 301 301 301 303 306 305 302 306 312 310 303 301 300 298 296 297 299 299 299 299 299 299 297 295 292 290 285 279 278 277
270 268 268 264 258 255 248 247 258 269 274 265 255 262 281 293 300 300 295 289 287 283 281 282 283 278 267 258 257 262 270 283 297 296 285 287 295 299 300 300 298 296 296 296 295 295 295 294 293 295 296 296 298 299 298 298 299 301 304 305 304 304 310 315 307 296 300 301 301 303 304 305 305 305 303 301 302 301 298 295 291 285 277 272 267
269 267 267 264 257 252 247 251 261 266 270 261 243 249 276 287 291 292 291 291 288 280 277 276 275 271 263 255 255 265 274 286 298 290 279 287 294 296 298 298 296 294 293 293 293 293 293 292 291 292 292 293 295 296 296 298 300 304 307 305 309 312 313 319 303 291 297 298 301 305 304 305 306 304 302 302 307 308 304 297 289 278 270 264 259
266 265 264 262 256 247 244 250 255 250 248 244 236 237 253 270 276 283 286 287 283 277 274 270 267 264 263 259 261 271 280 290 296 281 281 292 295 296 297 295 293 292 291 291 292 292 292 290 289 289 290 292 294 295 295 298 302 306 308 307 315 316 312 320 301 287 291 294 297 301 302 306 306 304 306 311 319 319 309 297 286 273 264 260 253
264 264 261 259 254 246 244 245 245 243 242 242 235 224 226 250 264 275 281 280 273 263 259 266 266 264 266 263 266 274 281 287 281 275 285 293 295 295 293 292 291 290 290 290 290 290 289 287 286 286 288 291 292 294 295 298 302 305 306 305 310 311 308 308 281 275 284 291 292 295 301 305 305 308 315 320 326 324 310 298 289 276 263 253 246
262 262 259 256 253 249 248 246 244 242 240 237 231 231 238 245 253 265 271 267 254 236 243 269 273 272 273 268 269 272 270 268 269 278 288 292 293 292 290 289 288 288 288 288 288 288 287 284 284 286 288 289 290 293 295 296 299 302 304 304 301 302 297 269 256 261 276 286 287 292 301 303 306 312 317 317 320 324 316 302 283 269 260 250 247
259 257 255 254 253 252 250 247 242 237 233 229 233 245 244 235 246 259 254 247 241 239 259 275 274 268 263 263 269 267 260 261 271 282 287 288 290 288 287 286 285 286 286 286 287 287 285 283 284 285 286 287 290 293 294 293 294 297 300 299 291 280 256 249 252 259 272 277 279 288 298 305 310 311 311 306 308 317 318 309 287 270 263 257 257
254 251 253 253 252 252 250 245 239 231 228 228 235 243 236 232 245 248 236 239 257 266 275 277 268 261 259 263 270 267 266 271 276 283 286 286 287 285 284 283 283 284 284 285 285 284 284 283 282 282 283 287 290 292 292 290 289 293 295 289 274 252 238 244 254 262 267 271 276 281 288 300 305 303 301 296 300 307 307 308 300 283 269 260 261
249 247 248 249 247 246 244 239 234 227 225 228 232 233 234 240 240 236 241 256 268 277 283 276 263 262 266 272 276 272 271 275 279 285 287 286 285 284 283 282 282 282 281 282 282 282 282 280 279 279 283 287 290 291 290 286 284 289 290 280 260 239 234 241 254 263 266 272 278 277 279 287 289 287 288 285 287 294 298 299 299 294 276 261 260
241 237 236 238 239 239 237 234 231 225 223 224 228 232 237 242 236 239 256 265 272 285 291 283 271 269 273 279 279 271 270 278 286 290 290 288 286 283 281 280 280 279 279 280 280 281 279 276 275 277 283 285 288 290 287 283 281 284 283 270 245 232 232 238 252 263 268 276 280 278 278 281 277 276 278 276 279 286 292 292 291 296 288 271 264
230 223 223 229 234 234 231 228 225 222 220 221 227 231 232 237 241 246 256 266 274 286 294 286 275 274 274 276 274 267 273 286 292 293 292 289 286 283 280 278 278 277 278 279 280 280 275 273 273 276 281 283 286 287 285 283 280 280 277 263 237 231 233 237 247 259 270 281 287 282 276 276 275 272 272 275 278 283 290 291 288 289 290 283 273
222 215 216 223 229 228 225 221 219 216 214 216 221 226 229 234 241 244 250 264 272 284 295 280 268 270 270 269 268 268 280 290 292 292 291 289 285 281 277 275 276 276 277 278 278 276 271 269 271 275 280 282 284 285 284 282 279 277 272 251 230 234 239 239 244 254 269 283 288 283 277 274 275 275 276 278 277 280 288 293 290 286 286 287 280
220 214 213 217 223 220 216 214 211 208 209 213 217 222 230 234 234 240 249 261 269 280 289 279 270 270 266 259 262 271 282 287 288 289 291 290 283 276 272 272 274 275 276 276 274 270 266 266 269 274 279 282 284 285 283 280 278 274 262 235 223 236 243 241 247 254 267 281 283 283 285 285 285 280 276 276 279 281 284 286 287 285 286 286 282
220 215 214 215 219 217 210 206 206 207 208 213 219 226 235 237 233 241 254 265 272 275 278 278 276 271 257 247 257 272 281 283 284 287 290 288 281 277 274 272 274 275 275 274 269 265 263 264 268 273 279 282 284 284 282 279 275 267 251 225 218 232 241 242 250 258 264 270 271 271 275 279 279 270 264 269 277 279 276 275 275 277 281 282 279
221 218 217 214 216 217 210 204 207 215 216 218 225 234 241 245 242 247 260 270 273 274 273 275 272 263 248 246 258 271 277 279 283 287 289 286 283 280 276 274 275 274 273 271 266 262 261 262 266 272 277 281 283 283 280 277 270 260 244 222 218 231 243 247 251 260 264 260 258 261 262 264 263 261 264 268 270 269 268 269 269 268 271 274 275
224 222 222 218 216 218 213 207 211 221 226 229 233 237 245 255 255 257 265 271 273 273 272 270 261 251 248 253 263 270 273 278 284 288 289 286 283 281 276 275 274 272 271 268 264 262 260 260 264 269 275 280 282 280 276 272 266 257 241 223 220 226 235 243 247 252 257 252 251 255 256 256 256 259 263 263 261 262 262 263 267 270 270 270 272
227 226 226 224 221 219 217 214 218 227 233 237 237 240 248 255 257 262 266 269 272 271 267 263 247 239 249 257 263 267 272 280 286 291 290 287 285 281 277 275 273 271 270 266 263 261 260 261 264 267 274 279 279 275 272 267 261 253 240 228 223 225 230 238 242 245 249 250 252 254 251 252 254 254 254 252 251 252 251 252 256 263 267 269 271
228 229 228 227 226 224 221 219 223 234 241 243 243 245 247 249 255 262 263 263 266 265 261 255 239 235 248 255 261 269 276 282 288 293 293 291 288 284 280 276 273 271 268 265 263 260 260 262 264 266 274 279 275 270 266 263 258 249 240 233 229 230 236 240 242 244 247 250 251 249 247 250 254 254 252 253 253 252 252 253 255 258 262 265 268
228 229 230 230 230 229 226 222 223 232 241 243 246 246 245 249 256 260 260 259 261 261 255 244 236 240 248 252 261 271 277 283 290 293 294 293 290 286 281 277 273 270 267 264 261 259 260 262 264 268 275 277 272 265 262 261 256 246 239 239 237 237 241 243 245 246 248 251 249 245 246 248 250 254 257 259 259 258 258 259 260 260 261 263 267
230 230 233 234 236 238 238 232 227 230 236 239 243 245 245 248 251 254 256 257 258 257 248 236 236 244 250 254 264 271 275 282 289 291 292 291 288 285 281 276 272 270 266 262 260 260 259 261 265 270 276 276 269 262 259 259 257 247 240 239 238 239 242 244 248 252 253 250 246 244 249 249 248 256 263 265 265 265 266 266 264 262 263 264 266
234 234 237 239 243 248 249 244 236 233 234 237 241 241 240 243 246 251 256 256 254 251 245 238 240 247 252 258 266 269 273 280 285 286 287 288 287 285 281 277 273 269 265 262 261 260 259 262 266 271 275 274 267 259 258 259 259 253 244 238 234 236 241 245 248 254 252 248 247 248 251 253 254 259 265 268 269 270 270 269 268 267 268 269 269
235 238 243 247 247 246 246 243 239 235 234 238 242 240 238 242 248 251 251 250 248 245 241 238 241 250 255 259 264 268 272 277 281 282 283 285 287 285 282 277 272 267 264 262 261 260 262 265 269 272 274 271 263 257 257 259 260 258 251 245 239 238 243 247 245 245 248 251 256 256 255 256 260 264 269 271 271 270 269 269 269 270 271 272 273
234 237 243 240 233 234 241 243 242 238 237 237 239 241 239 239 244 246 243 241 241 240 239 239 244 251 255 257 263 267 271 275 278 280 282 285 286 285 281 275 269 264 262 262 262 263 266 268 271 272 271 266 259 255 256 259 261 262 258 253 247 242 245 249 247 246 250 255 257 257 258 260 263 266 270 274 275 274 271 270 270 271 272 273 273
220 220 224 226 221 220 231 239 240 237 234 232 233 237 235 231 235 240 238 237 238 241 243 243 246 250 253 257 262 266 270 275 278 279 282 285 287 286 281 274 267 263 261 262 263 266 268 270 271 270 265 260 256 254 258 262 263 263 261 253 248 245 244 248 251 252 254 255 257 259 260 263 265 268 271 275 279 278 275 273 272 272 272 273 274
207 212 214 219 213 210 227 237 236 235 232 228 228 232 231 227 231 235 235 236 240 244 246 245 246 248 251 256 260 265 272 277 278 278 281 284 286 284 279 274 269 265 263 263 264 266 268 269 268 265 260 255 253 255 260 263 264 264 260 251 246 245 244 246 250 253 255 258 259 260 261 263 266 269 273 277 279 280 278 275 273 272 272 273 273
Height
10885 10884 10884 10884 10885 10885 10885 10886 10886 10887 10886 10886 10885 10885 10884 10884 10885 10886 10887 10887 10885 10883 10882 10881 10881 10880 10880 10879 10878 10877 10875 10873 10872 10870 10869 10868 10866 10865 10864 10862 10861 10858 10857 10855 10852 10850 10848 10846 10843 10841 10839 10837 10835 10832 10829 10827 10825 10822 10820 10818 10815 10812 10809 10807 10804 10802 10800 10798 10795 10793 10791 10789 10788 10786 10785 10783 10782 10781 10780 10779 10778 10777 10776 10774 10773
10882 10881 10880 10880 10881 10881 10881 10882 10882 10883 10882 10882 10881 10880 10880 10880 10881 10882 10883 10883 10882 10879 10878 10877 10876 10876 10876 10875 10875 10874 10872 10870 10868 10867 10865 10864 10863 10861 10860 10859 10857 10854 10852 10850 10848 10846 10844 10841 10839 10837 10835 10833 10831 10828 10826 10823 10821 10818 10816 10813 10810 10808 10805 10802 10800 10798 10796 10794 10792 10790 10788 10786 10785 10784 10782 10781 10780 10779 10778 10778 10776 10775 10773 10772 10771
10879 10878 10877 10877 10877 10877 10877 10877 10878 10878 10878 10878 10877 10876 10876 10876 10877 10878 10879 10879 10878 10876 10874 10873 10872 10873 10872 10872 10871 10870 10868 10866 10865 10863 10861 10860 10859 10858 10857 10855 10853 10850 10848 10846 10844 10842 10840 10837 10835 10832 10830 10828 10827 10825 10823 10820 10817 10814 10812 10809 10806 10803 10801 10798 10796 10794 10792 10791 10789 10787 10785 10784 10783 10781 10780 10779 10778 10777 10776 10775 10774 10772 10771 10770 10769
10875 10874 10874 10873 10873 10873 10873 10873 10873 10874 10874 10873 10873 10872 10872 10873 10873 10874 10874 10874 10874 10872 10870 10869 10869 10869 10868 10868 10867 10866 10864 10862 10860 10859 10857 10856 10855 10854 10853 10852 10849 10846 10844 10842 10840 10838 10836 10833 10831 10828 10826 10824 10822 10821 10819 10817 10814 10811 10808 10805 10802 10799 10797 10795 10793 10791 10789 10787 10785 10784 10782 10781 10780 10779 10778 10776 10775 10774 10774 10773 10771 10770 10769 10768 10767
10872 10871 10870 10868 10869 10869 10869 10869 10869 10869 10869 10869 10868 10868 10868 10869 10869 10869 10870 10869 10869 10868 10867 10866 10865 10865 10864 10864 10863 10861 10859 10858 10856 10854 10853 10852 10851 10849 10848 10847 10845 10842 10839 10837 10836 10834 10831 10829 10827 10824 10822 10820 10818 10817 10815 10813 10811 10808 10804 10801 10798 10796 10793 10791 10789 10788 10786 10784 10782 10781 10780 10778 10777 10776 10775 10774 10773 10772 10771 10770 10769 10767 10767 10765 10764
10868 10867 10866 10865 10865 10865 10864 10864 10864 10864 10864 10864 10864 10864 10865 10865 10865 10865 10865 10864 10864 10864 10863 10862 10862 10861 10860 10859 10858 10856 10855 10854 10852 10850 10848 10847 10846 10845 10843 10842 10841 10838 10835 10833 10831 10830 10827 10825 10823 10820 10818 10817 10815 10813 10811 10809 10807 10804 10801 10797 10794 10792 10790 10788 10786 10784 10783 10781 10779 10778 10777 10776 10775 10774 10773 10772 10771 10770 10769 10768 10767 10765 10764 10763 10762
10863 10862 10862 10861 10861 10861 10860 10860 10860 10860 10859 10860 10860 10860 10860 10860 10861 10861 10860 10860 10860 10860 10860 10859 10858 10857 10856 10855 10853 10852 10850 10849 10848 10846 10844 10843 10841 10840 10838 10837 10836 10834 10831 10828 10827 10825 10823 10821 10818 10816 10814 10813 10811 10809 10807 10805 10803 10800 10797 10794 10791 10788 10786 10785 10783 10781 10780 10778 10777 10776 10774 10773 10772 10771 10770 10769 10768 10767 10766 10765 10764 10763 10762 10761 10760
10858 10858 10857 10857 10857 10857 10856 10855 10855 10855 10855 10855 10856 10856 10856 10856 10856 10856 10856 10856 10856 10856 10856 10855 10854 10853 10852 10851 10849 10847 10846 10845 10843 10841 10839 10838 10836 10835 10833 10832 10831 10829 10826 10824 10822 10820 10819 10817 10814 10813 10811 10809 10807 10805 10803 10801 10799 10796 10794 10791 10788 10785 10783 10781 10780 10778 10777 10776 10775 10773 10772 10771 10770 10769 10768 10767 10766 10765 10764 10763 10762 10761 10760 10759 10758
10853 10853 10853 10852 10852 10852 10851 10850 10851 10851 10851 10852 10852 10852 10851 10852 10852 10852 10852 10852 10852 10852 10852 10851 10850 10849 10848 10847 10845 10843 10841 10840 10839 10837 10835 10833 10831 10830 10828 10827 10826 10824 10822 10820 10818 10816 10814 10813 10811 10809 10807 10806 10804 10802 10799 10797 10794 10792 10790 10788 10785 10782 10780 10778 10776 10775 10774 10773 10772 10771 10770 10769 10767 10766 10766 10765 10764 10763 10762 10761 10760 10759 10758 10757 10756
10848 10848 10848 10848 10847 10847 10846 10846 10846 10847 10847 10848 10848 10848 10847 10847 10847 10848 10848 10848 10848 10848 10847 10847 10846 10845 10844 10842 10841 10839 10837 10836 10834 10832 10830 10828 10826 10825 10823 10822 10821 10820 10818 10816 10814 10812 10810 10809 10808 10806 10804 10802 10800 10798 10795 10793 10790 10788 10786 10784 10782 10780 10777 10775 10773 10772 10771 10770 10769 10768 10767 10766 10765 10764 10763 10762 10761 10761 10760 10759 10758 10757 10755 10754 10753
10843 10843 10843 10842 10842 10842 10842 10841 10842 10843 10844 10844 10845 10844 10843 10843 10843 10844 10844 10844 10843 10843 10843 10842 10842 10841 10840 10838 10837 10835 10833 10831 10829 10827 10825 10823 10821 10820 10818 10817 10816 10815 10814 10812 10810 10808 10807 10805 10804 10802 10800 10797 10796 10794 10791 10789 10786 10784 10783 10781 10779 10776 10774 10772 10771 10770 10769 10768 10767 10766 10764 10763 10762 10762 10761 10760 10760 10759 10758 10757 10756 10755 10753 10752 10751
10838 10838 10838 10837 10837 10837 10837 10836 10837 10839 10840 10840 10841 10840 10840 10840 10839 10839 10839 10839 10839 10839 10838 10838 10837 10836 10835 10833 10832 10831 10829 10827 10825 10823 10820 10818 10816 10815 10813 10812 10811 10811 10810 10808 10807 10805 10803 10802 10800 10798 10795 10793 10791 10789 10787 10785 10783 10781 10779 10778 10776 10773 10771 10769 10768 10767 10766 10765 10764 10763 10762 10761 10760 10759 10759 10758 10758 10757 10756 10755 10754 10753 10751 10750 10749
10832 10832 10833 10833 10832 10832 10832 10832 10833 10835 10836 10837 10837 10836 10836 10836 10835 10835 10835 10834 10834 10834 10834 10833 10832 10831 10831 10829 10828 10826 10825 10823 10820 10818 10815 10813 10811 10810 10808 10807 10806 10806 10806 10804 10803 10801 10799 10798 10796 10794 10791 10789 10787 10785 10783 10781 10779 10778 10777 10775 10773 10771 10768 10767 10766 10765 10764 10763 10761 10760 10759 10758 10758 10757 10757 10756 10756 10755 10754 10753 10752 10751 10749 10748 10747
10827 10828 10828 10828 10827 10827 10827 10828 10829 10831 10833 10833 10833 10833 10832 10832 10832 10831 10830 10830 10829 10829 10829 10829 10828 10827 10826 10825 10823 10821 10820 10817 10815 10813 10810 10808 10806 10805 10803 10802 10801 10801 10801 10800 10799 10797 10795 10794 10792 10790 10787 10785 10783 10781 10779 10777 10776 10774 10774 10772 10770 10768 10766 10765 10764 10763 10761 10760 10759 10758 10757 10756 10755 10755 10754 10754 10753 10753 10752 10751 10750 10748 10747 10746 10744
10822 10823 10823 10822 10823 10823 10824 10825 10826 10828 10829 10830 10830 10829 10829 10828 10828 10827 10826 10825 10825 10825 10824 10824 10823 10823 10822 10820 10818 10816 10814 10812 10810 10807 10805 10803 10801 10799 10798 10797 10797 10797 10797 10795 10795 10793 10791 10789 10788 10786 10783 10781 10779 10777 10776 10774 10773 10771 10770 10769 10767 10765 10764 10763 10762 10761 10759 10758 10757 10756 10755 10754 10753 10752 10752 10751 10751 10750 10749 10748 10747 10746 10745 10743 10742
10817 10817 10818 10817 10818 10820 10822 10823 10824 10826 10826 10827 10826 10825 10825 10824 10823 10822 10821 10821 10820 10820 10820 10819 10819 10818 10817 10815 10813 10811 10809 10807 10805 10802 10800 10798 10795 10794 10793 10792 10792 10792 10792 10791 10791 10789 10787 10785 10783 10782 10779 10777 10775 10774 10772 10771 10770 10768 10767 10765 10764 10763 10762 10761 10760 10759 10757 10756 10755 10754 10752 10751 10751 10750 10749 10749 10748 10747 10747 10746 10745 10744 10742 10741 10740
10812 10812 10812 10813 10815 10817 10819 10821 10822 10823 10823 10823 10822 10821 10821 10820 10819 10818 10817 10816 10816 10816 10815 10815 10814 10813 10812 10811 10809 10807 10804 10802 10800 10797 10795 10792 10790 10788 10788 10788 10787 10788 10788 10788 10787 10785 10783 10781 10779 10777 10775 10774 10772 10771 10769 10768 10767 10765 10764 10762 10761 10760 10759 10758 10758 10756 10755 10754 10753 10752 10750 10750 10749 10748 10747 10747 10746 10745 10744 10743 10742 10741 10740 10738 10737
10806 10806 10807 10809 10812 10815 10817 10818 10819 10820 10820 10819 10818 10818 10817 10816 10815 10814 10813 10812 10812 10811 10811 10810 10809 10808 10807 10806 10804 10802 10800 10797 10795 10793 10790 10787 10785 10784 10784 10784 10784 10784 10784 10784 10783 10781 10779 10778 10776 10774 10772 10770 10769 10768 10767 10765 10764 10763 10761 10760 10759 10758 10757 10756 10755 10754 10753 10752 10751 10750 10749 10748 10747 10746 10745 10744 10744 10743 10742 10741 10740 10738 10737 10736 10735
10801 10802 10804 10806 10810 10812 10814 10815 10815 10815 10815 10815 10814 10813 10812 10811 10810 10809 10809 10808 10808 10807 10806 10806 10805 10804 10803 10802 10800 10797 10794 10792 10789 10787 10785 10783 10782 10781 10781 10780 10780 10780 10780 10779 10779 10777 10776 10775 10773 10770 10769 10767 10766 10765 10764 10763 10761 10760 10759 10758 10757 10756 10755 10754 10753 10751 10750 10749 10748 10747 10747 10746 10745 10744 10743 10742 10741 10740 10739 10738 10737 10736 10735 10733 10732
10796 10799 10801 10804 10808 10810 10811 10811 10811 10811 10810 10810 10809 10808 10807 10806 10805 10805 10804 10804 10803 10803 10802 10801 10800 10799 10798 10797 10795 10792 10789 10787 10784 10782 10781 10780 10779 10779 10778 10777 10776 10775 10775 10775 10774 10774 10773 10772 10770 10768 10766 10765 10764 10763 10761 10760 10758 10758 10757 10756 10755 10754 10753 10751 10750 10748 10747 10746 10746 10745 10744 10743 10742 10741 10740 10739 10738 10737 10736 10735 10734 10733 10732 10731 10730
10793 10796 10799 10803 10806 10808 10808 10807 10807 10806 10805 10804 10803 10802 10801 10801 10800 10800 10799 10799 10798 10798 10797 10796 10796 10795 10794 10792 10790 10787 10784 10782 10780 10778 10778 10778 10777 10775 10774 10773 10772 10771 10770 10770 10770 10771 10770 10769 10768 10766 10764 10762 10761 10760 10759 10757 10756 10755 10754 10753 10753 10752 10750 10749 10747 10746 10745 10744 10743 10742 10741 10741 10740 10739 10738 10737 10736 10734 10733 10732 10731 10730 10729 10728 10728
10790 10794 10798 10801 10804 10806 10805 10803 10803 10801 10799 10799 10798 10797 10796 10796 10795 10795 10794 10794 10793 10793 10792 10792 10792 10791 10789 10787 10786 10783 10780 10779 10778 10776 10775 10775 10774 10772 10770 10769 10768 10768 10767 10767 10767 10767 10767 10767 10766 10764 10762 10760 10758 10758 10756 10755 10754 10753 10752 10751 10751 10750 10748 10747 10745 10743 10742 10741 10740 10740 10739 10738 10737 10737 10736 10734 10733 10731 10730 10729 10728 10727 10726 10726 10725
10788 10792 10796 10799 10802 10804 10802 10801 10799 10795 10793 10794 10792 10791 10791 10790 10789 10789 10789 10788 10788 10788 10787 10787 10787 10786 10784 10784 10782 10780 10777 10776 10775 10773 10771 10771 10770 10769 10767 10766 10765 10764 10764 10763 10764 10764 10764 10764 10763 10762 10760 10758 10756 10755 10754 10753 10752 10752 10751 10749 10748 10747 10746 10745 10743 10741 10740 10739 10738 10737 10737 10736 10735 10734 10733 10731 10730 10728 10727 10727 10726 10725 10724 10723 10723
10785 10791 10795 10798 10802 10802 10801 10801 10796 10790 10789 10789 10786 10785 10785 10785 10784 10783 10784 10784 10784 10783 10783 10783 10783 10782 10780 10780 10779 10776 10774 10773 10771 10770 10769 10767 10766 10766 10765 10764 10762 10762 10761 10760 10761 10761 10761 10760 10760 10760 10759 10757 10754 10753 10752 10751 10751 10750 10749 10748 10747 10745 10744 10743 10742 10739 10737 10737 10736 10735 10734 10733 10732 10731 10729 10728 10726 10725 10724 10723 10722 10722 10721 10721 10720
10783 10790 10795 10798 10801 10799 10799 10801 10796 10791 10790 10787 10783 10782 10782 10781 10781 10780 10779 10779 10779 10779 10779 10779 10779 10779 10778 10777 10776 10773 10771 10770 10769 10767 10766 10764 10763 10763 10762 10761 10760 10759 10758 10758 10758 10758 10758 10757 10758 10757 10757 10756 10754 10752 10751 10750 10749 10749 10748 10746 10745 10744 10742 10742 10740 10737 10735 10734 10733 10732 10731 10730 10729 10728 10726 10724 10723 10722 10721 10720 10719 10719 10718 10718 10718
10780 10786 10792 10798 10800 10795 10797 10796 10792 10792 10792 10790 10785 10781 10781 10781 10780 10779 10777 10776 10775 10776 10776 10776 10776 10776 10775 10774 10773 10771 10769 10768 10768 10766 10764 10762 10760 10760 10760 10759 10758 10757 10756 10755 10755 10755 10755 10755 10755 10755 10755 10754 10753 10751 10750 10749 10748 10747 10746 10746 10745 10743 10742 10741 10738 10734 10731 10731 10729 10729 10728 10727 10726 10724 10723 10722 10720 10719 10718 10717 10716 10715 10716 10716 10716
10774 10778 10784 10793 10794 10789 10790 10788 10784 10787 10788 10789 10787 10783 10781 10781 10781 10779 10776 10773 10773 10773 10773 10772 10773 10773 10773 10771 10771 10770 10768 10766 10766 10764 10762 10760 10759 10758 10758 10757 10756 10755 10754 10752 10752 10752 10752 10752 10753 10753 10753 10752 10751 10750 10749 10748 10747 10746 10746 10746 10744 10743 10742 10740 10737 10732 10728 10727 10726 10726 10726 10725 10724 10722 10720 10719 10717 10716 10714 10713 10713 10712 10713 10714 10714
10767 10771 10776 10783 10785 10780 10780 10779 10779 10782 10782 10783 10785 10784 10784 10782 10781 10778 10774 10772 10771 10771 10770 10770 10770 10771 10770 10770 10769 10769 10767 10765 10764 10762 10760 10759 10758 10758 10757 10756 10755 10753 10752 10751 10750 10750 10750 10750 10751 10752 10751 10751 10750 10749 10749 10747 10746 10745 10745 10745 10744 10743 10742 10741 10737 10731 10727 10725 10725 10725 10724 10723 10722 10719 10717 10716 10714 10713 10712 10711 10710 10711 10711 10712 10712
10760 10764 10768 10774 10777 10773 10773 10775 10776 10778 10778 10778 10780 10783 10785 10784 10781 10776 10772 10770 10770 10769 10768 10767 10768 10769 10769 10769 10768 10768 10767 10764 10762 10759 10757 10757 10757 10756 10755 10754 10753 10752 10751 10750 10748 10747 10747 10748 10749 10750 10749 10749 10749 10748 10747 10746 10746 10744 10744 10743 10743 10743 10741 10741 10738 10729 10724 10725 10724 10725 10723 10721 10719 10717 10715 10713 10712 10711 10710 10709 10709 10710 10710 10710 10711
10753 10757 10761 10765 10768 10767 10769 10772 10772 10774 10775 10775 10777 10780 10783 10783 10779 10774 10770 10769 10768 10767 10766 10766 10766 10767 10768 10767 10767 10767 10766 10763 10761 10757 10754 10755 10754 10754 10753 10752 10751 10750 10749 10747 10746 10745 10745 10745 10746 10747 10747 10747 10747 10746 10746 10745 10745 10743 10742 10741 10741 10742 10740 10740 10737 10726 10720 10723 10724 10723 10722 10720 10717 10715 10713 10712 10711 10710 10709 10709 10709 10709 10709 10709 10709
10748 10751 10754 10757 10760 10762 10765 10768 10770 10771 10772 10772 10774 10776 10779 10780 10777 10772 10768 10767 10766 10764 10764 10764 10764 10765 10765 10765 10766 10766 10765 10764 10762 10757 10753 10753 10753 10752 10751 10749 10748 10747 10746 10745 10744 10743 10743 10743 10744 10744 10744 10744 10744 10744 10744 10744 10743 10742 10741 10741 10741 10740 10739 10739 10735 10723 10718 10722 10723 10722 10721 10718 10716 10713 10712 10711 10710 10709 10709 10709 10709 10709 10708 10708 10708
10744 10746 10747 10750 10753 10756 10761 10764 10767 10769 10769 10768 10769 10771 10775 10775 10774 10771 10767 10765 10763 10762 10762 10761 10762 10762 10762 10762 10764 10765 10766 10765 10760 10755 10753 10751 10751 10750 10748 10747 10746 10744 10743 10742 10741 10741 10740 10740 10740 10741 10741 10741 10741 10740 10741 10741 10741 10740 10739 10740 10740 10738 10739 10736 10729 10722 10720 10721 10722 10721 10720 10717 10715 10713 10712 10711 10710 10709 10709 10709 10709 10708 10708 10708 10708
10738 10739 10741 10744 10748 10751 10756 10759 10761 10765 10766 10764 10764 10766 10769 10770 10769 10768 10767 10765 10761 10759 10758 10757 10759 10760 10759 10758 10761 10761 10761 10761 10757 10753 10751 10749 10748 10748 10746 10745 10743 10742 10741 10739 10738 10738 10738 10737 10737 10738 10738 10738 10738 10738 10738 10738 10738 10739 10738 10738 10738 10736 10736 10730 10723 10722 10722 10721 10721 10720 10719 10717 10715 10713 10712 10711 10710 10709 10708 10708 10708 10708 10707 10707 10707
10731 10733 10735 10740 10743 10746 10750 10753 10755 10760 10762 10760 10760 10760 10762 10765 10765 10763 10763 10763 10759 10756 10755 10755 10757 10757 10756 10755 10757 10756 10753 10753 10752 10750 10749 10747 10746 10745 10744 10742 10741 10740 10738 10737 10736 10735 10735 10735 10735 10734 10734 10734 10735 10735 10735 10735 10735 10736 10736 10735 10735 10734 10731 10725 10722 10723 10723 10721 10721 10719 10717 10716 10715 10713 10712 10710 10709 10708 10707 10707 10707 10706 10706 10706 10706
10725 10728 10732 10735 10738 10740 10744 10747 10750 10753 10756 10756 10756 10756 10757 10761 10762 10760 10759 10758 10755 10753 10754 10755 10756 10756 10753 10751 10752 10750 10747 10747 10747 10746 10745 10744 10743 10742 10740 10739 10738 10737 10736 10734 10733 10733 10733 10732 10732 10732 10732 10732 10732 10732 10732 10732 10732 10733 10733 10733 10732 10730 10726 10723 10723 10723 10722 10721 10720 10717 10717 10717 10715 10713 10711 10710 10708 10707 10706 10706 10706 10705 10705 10705 10705
10721 10724 10728 10731 10733 10736 10738 10741 10744 10747 10750 10752 10753 10753 10754 10757 10758 10757 10754 10752 10752 10751 10752 10753 10754 10753 10749 10747 10747 10745 10742 10742 10742 10742 10742 10741 10740 10739 10737 10735 10734 10733 10732 10732 10731 10731 10730 10730 10730 10730 10730 10730 10730 10730 10729 10729 10729 10730 10730 10730 10729 10726 10723 10724 10724 10722 10721 10720 10719 10716 10715 10715 10714 10712 10710 10709 10708 10707 10706 10705 10704 10704 10704 10704 10704
10716 10720 10723 10727 10730 10732 10733 10736 10739 10742 10745 10747 10749 10749 10750 10752 10754 10753 10749 10748 10748 10748 10749 10749 10750 10749 10746 10744 10744 10742 10739 10738 10738 10737 10738 10737 10736 10736 10734 10732 10731 10730 10729 10729 10728 10728 10728 10728 10728 10728 10728 10727 10727 10727 10727 10726 10726 10726 10727 10727 10726 10722 10721 10723 10723 10720 10719 10718 10717 10716 10714 10713 10712 10711 10709 10708 10708 10706 10705 10704 10704 10703 10703 10703 10703
10712 10715 10719 10722 10725 10727 10730 10733 10736 10739 10741 10743 10745 10745 10746 10747 10749 10748 10745 10744 10744 10744 10745 10746 10745 10744 10744 10741 10738 10736 10734 10734 10733 10733 10734 10734 10733 10733 10731 10728 10727 10727 10726 10726 10726 10726 10726 10726 10726 10726 10725 10725 10725 10724 10724 10723 10723 10723 10724 10724 10723 10719 10719 10721 10720 10719 10717 10715 10715 10714 10712 10710 10709 10708 10706 10706 10706 10706 10705 10704 10703 10702 10702 10702 10702
10706 10710 10713 10715 10718 10723 10728 10731 10733 10735 10737 10739 10740 10741 10740 10742 10744 10743 10741 10741 10741 10741 10742 10742 10741 10741 10741 10738 10732 10730 10729 10729 10729 10729 10729 10730 10730 10729 10727 10725 10724 10724 10723 10723 10723 10723 10723 10724 10724 10723 10723 10723 10722 10722 10721 10720 10720 10720 10721 10721 10719 10715 10715 10718 10717 10717 10716 10714 10713 10713 10711 10708 10706 10705 10703 10704 10704 10705 10704 10703 10702 10701 10701 10701 10700
10701 10705 10707 10708 10713 10718 10723 10727 10729 10732 10734 10735 10737 10738 10737 10738 10740 10739 10738 10738 10738 10738 10739 10739 10738 10737 10737 10734 10728 10725 10725 10725 10725 10724 10724 10725 10726 10725 10723 10721 10720 10720 10720 10720 10720 10721 10721 10721 10721 10721 10721 10720 10720 10719 10718 10718 10718 10718 10718 10718 10716 10711 10711 10714 10715 10714 10715 10713 10712 10713 10712 10708 10705 10703 10702 10702 10703 10703 10704 10703 10702 10701 10700 10700 10700
10697 10700 10701 10704 10709 10713 10718 10722 10725 10728 10730 10731 10733 10735 10736 10737 10738 10736 10734 10734 10734 10735 10735 10735 10735 10734 10733 10728 10722 10721 10721 10721 10720 10719 10719 10719 10720 10720 10718 10717 10717 10717 10717 10717 10718 10718 10719 10719 10719 10719 10718 10718 10717 10716 10716 10715 10715 10715 10715 10715 10714 10711 10709 10711 10712 10712 10712 10711 10710 10712 10712 10709 10704 10702 10701 10701 10701 10702 10702 10702 10702 10700 10700 10699 10699
10693 10694 10697 10701 10705 10709 10714 10719 10721 10723 10725 10728 10730 10731 10733 10734 10733 10730 10730 10730 10730 10731 10731 10731 10733 10733 10729 10722 10717 10717 10717 10716 10716 10715 10714 10714 10714 10715 10714 10713 10713 10713 10713 10714 10715 10715 10716 10716 10717 10716 10716 10715 10714 10714 10713 10713 10713 10713 10712 10712 10712 10710 10708 10707 10709 10710 10709 10709 10709 10710 10710 10707 10703 10701 10701 10700 10701 10701 10701 10702 10701 10699 10698 10697 10697
10689 10690 10693 10696 10701 10706 10710 10715 10718 10719 10721 10725 10726 10727 10729 10729 10728 10725 10725 10726 10726 10726 10726 10726 10728 10727 10722 10716 10713 10713 10713 10712 10711 10711 10710 10710 10710 10710 10709 10709 10709 10709 10710 10710 10711 10712 10713 10714 10714 10713 10713 10712 10711 10711 10710 10710 10710 10710 10710 10710 10709 10707 10706 10705 10707 10707 10707 10707 10708 10708 10708 10705 10701 10701 10701 10700 10701 10700 10699 10700 10700 10698 10696 10694 10694
10684 10685 10688 10693 10698 10703 10708 10714 10718 10718 10719 10722 10721 10722 10724 10723 10722 10719 10719 10721 10722 10722 10722 10721 10721 10718 10714 10711 10709 10709 10708 10708 10707 10706 10706 10706 10705 10705 10705 10705 10705 10706 10707 10707 10708 10709 10710 10711 10711 10711 10710 10709 10709 10708 10708 10708 10708 10707 10707 10707 10707 10706 10704 10704 10705 10705 10705 10705 10706 10707 10706 10704 10701 10700 10699 10698 10698 10697 10696 10697 10697 10696 10695 10693 10691
10680 10681 10685 10692 10697 10701 10707 10714 10720 10720 10719 10720 10716 10716 10719 10718 10715 10712 10711 10714 10716 10717 10717 10715 10714 10711 10707 10706 10705 10704 10703 10703 10703 10703 10703 10702 10702 10702 10702 10702 10702 10703 10703 10704 10705 10706 10707 10708 10708 10708 10707 10706 10706 10705 10705 10705 10705 10705 10705 10704 10704 10704 10703 10702 10703 10702 10702 10703 10704 10704 10704 10702 10701 10699 10697 10696 10695 10694 10694 10693 10693 10693 10692 10691 10689
10678 10681 10687 10693 10698 10702 10707 10713 10719 10718 10716 10715 10712 10712 10714 10713 10710 10706 10705 10707 10710 10711 10711 10710 10708 10704 10702 10702 10701 10700 10699 10699 10699 10699 10699 10699 10699 10698 10698 10699 10699 10700 10700 10701 10702 10703 10704 10705 10705 10705 10704 10703 10703 10703 10702 10702 10702 10702 10702 10702 10702 10702 10701 10700 10699 10699 10700 10700 10701 10702 10700 10699 10698 10696 10694 10693 10692 10691 10691 10690 10690 10689 10689 10688 10687
10679 10685 10690 10694 10699 10703 10704 10706 10709 10710 10709 10708 10707 10708 10707 10705 10703 10700 10699 10701 10703 10706 10705 10704 10702 10698 10697 10697 10696 10695 10695 10695 10695 10696 10696 10696 10696 10695 10695 10696 10696 10697 10697 10698 10699 10700 10702 10702 10703 10702 10701 10700 10700 10700 10700 10700 10700 10700 10699 10699 10699 10700 10699 10698 10697 10697 10697 10697 10698 10698 10697 10696 10695 10694 10692 10691 10689 10689 10688 10687 10687 10686 10685 10684 10683
10682 10687 10691 10695 10700 10700 10697 10693 10695 10701 10704 10703 10702 10700 10698 10699 10696 10692 10693 10696 10697 10698 10697 10695 10694 10691 10691 10692 10691 10691 10691 10691 10692 10693 10693 10693 10692 10692 10692 10693 10694 10694 10695 10696 10696 10698 10699 10699 10700 10699 10698 10697 10697 10697 10697 10697 10697 10697 10697 10696 10697 10697 10696 10695 10694 10694 10695 10694 10694 10694 10694 10693 10692 10691 10690 10689 10687 10686 10685 10684 10684 10683 10681 10680 10679
10685 10688 10691 10693 10694 10693 10689 10684 10688 10695 10699 10700 10697 10688 10688 10693 10688 10682 10687 10691 10689 10689 10688 10688 10687 10685 10686 10687 10687 10687 10687 10688 10689 10689 10689 10689 10688 10688 10689 10690 10691 10692 10692 10693 10694 10695 10695 10696 10696 10696 10695 10695 10695 10695 10694 10695 10694 10694 10694 10694 10694 10694 10693 10692 10691 10691 10692 10691 10691 10691 10690 10690 10689 10688 10687 10686 10685 10684 10682 10681 10680 10679 10678 10677 10676
10686 10686 10684 10681 10683 10688 10685 10679 10681 10685 10688 10690 10684 10675 10680 10687 10681 10677 10682 10685 10683 10682 10682 10682 10682 10682 10683 10683 10683 10683 10684 10684 10685 10685 10686 10685 10685 10685 10685 10686 10687 10688 10689 10690 10691 10692 10692 10692 10693 10693 10692 10692 10692 10692 10692 10692 10692 10691 10692 10691 10691 10690 10690 10690 10688 10688 10688 10688 10688 10688 10687 10686 10685 10684 10684 10684 10683 10681 10680 10678 10677 10676 10675 10673 10672
10677 10673 10667 10664 10671 10679 10675 10668 10669 10672 10676 10679 10674 10672 10678 10680 10678 10678 10679 10679 10678 10677 10678 10678 10678 10679 10680 10680 10680 10680 10680 10681 10681 10681 10682 10681 10681 10681 10682 10683 10684 10685 10686 10687 10687 10688 10688 10688 10689 10689 10689 10690 10690 10690 10690 10689 10689 10689 10689 10689 10688 10688 10688 10687 10686 10684 10684 10684 10684 10684 10683 10683 10682 10681 10681 10681 10680 10679 10677 10676 10674 10673 10672 10670 10669